Scottsbluff, NE

6:26 PM MDT on April 25, 2018 (GMT -0600)
Heilig

Weather History for KBFF - January, 2006

Change the Weather History Date:

Monday, January 16, 2006

  Actual Average Record
Temperature  
Mean Temperature 26 °F 27 °F  
Max Temperature 38 °F 41 °F 62 °F (1952)
Min Temperature 13 °F 14 °F -19 °F (1957)
Degree Days  
Heating Degree Days 39 38  
Month to date heating degree days 448 613  
Since 1 July heating degree days 2972 3385  
Cooling Degree Days 0 0  
Month to date cooling degree days 0 0  
Year to date cooling degree days 0 0  
Moisture  
Dew Point 13 °F    
Average Humidity 49    
Maximum Humidity 69    
Minimum Humidity 29    
Precipitation  
Precipitation T in 0.01 in 0.71 in (1995)
Month to date precipitation 0.49 0.21  
Year to date precipitation 0.49 0.21  
Snow  
Snow T in 0.10 in 9.10 in (1995)
Month to date snowfall 5.9 2.8  
Since 1 July snowfall 10.0 18.8  
Snow Depth T in    
Sea Level Pressure  
Sea Level Pressure 29.99 in    
Wind  
Wind Speed 19 mph (NW)    
Max Wind Speed 32 mph    
Max Gust Speed 43 mph    
Visibility 10 miles    
Events      
T = Trace of Precipitation, MM = Missing Value Source: NWS Daily Summary

Daily Weather History Graph

Daily Weather History Graph

Search for Another Location

Airport or City:

Astronomy

Jan. 16, 2006 Rise Set
Actual Time 7:19 AM MST 4:49 PM MST
Civil Twilight 6:48 AM MST 5:20 PM MST
Nautical Twilight 6:14 AM MST 5:54 PM MST
Astronomical Twilight 5:40 AM MST 6:28 PM MST
Moon 7:08 PM MST (1/16) 8:56 AM MST (1/16)
Length of Visible Light 10h 31m
Length of Day
9h 30m
Waning Gibbous, 95% of the Moon is Illuminated
Jan 16
Waning Gibbous
Jan 22
Last Quarter
Jan 29
New
Feb 4
First Quarter
Feb 12
Full

Hourly Weather History & Observations

Time (MST) Temp. Windchill Dew Point Humidity Pressure Visibility Wind Dir Wind Speed Gust Speed Precip Events Conditions
12:54 AM 34.0 °F 22.1 °F 21.9 °F 61% 29.75 in 10.0 mi NW 21.9 mph 31.1 mph N/A   Mostly Cloudy
1:54 AM 34.0 °F 21.5 °F 21.0 °F 59% 29.78 in 10.0 mi NNW 24.2 mph 38.0 mph N/A   Overcast
2:54 AM 33.1 °F 20.9 °F 21.0 °F 61% 29.78 in 10.0 mi NNW 21.9 mph 42.6 mph N/A   Overcast
3:54 AM 32.0 °F 18.9 °F 19.9 °F 61% 29.81 in 10.0 mi NNW 24.2 mph 38.0 mph N/A   Partly Cloudy
4:54 AM 30.9 °F 18.4 °F 19.9 °F 64% 29.85 in 10.0 mi NNW 20.7 mph 32.2 mph N/A   Overcast
5:54 AM 32.0 °F 19.8 °F 21.0 °F 64% 29.87 in 10.0 mi NNW 20.7 mph 28.8 mph N/A   Overcast
6:54 AM 30.9 °F 19.1 °F 18.0 °F 59% 29.92 in 10.0 mi NNW 18.4 mph 27.6 mph N/A   Overcast
7:54 AM 30.9 °F 18.7 °F 19.0 °F 61% 29.96 in 10.0 mi NW 19.6 mph 28.8 mph N/A   Mostly Cloudy
8:54 AM 33.1 °F 21.9 °F 17.1 °F 52% 30.00 in 10.0 mi NNW 18.4 mph 28.8 mph N/A   Clear
9:54 AM 32.0 °F 19.2 °F 16.0 °F 52% 30.02 in 10.0 mi NNW 23.0 mph 32.2 mph N/A   Scattered Clouds
10:54 AM 35.1 °F 22.2 °F 14.0 °F 42% 30.01 in 10.0 mi NNW 27.6 mph 34.5 mph N/A   Clear
11:54 AM 36.0 °F 23.5 °F 10.9 °F 36% 29.99 in 10.0 mi NNW 27.6 mph 35.7 mph N/A   Clear
12:54 PM 36.0 °F 22.8 °F 8.1 °F 31% 29.99 in 10.0 mi NW 31.1 mph 39.1 mph N/A   Clear
1:54 PM 33.1 °F 20.3 °F 6.1 °F 32% 30.00 in 10.0 mi NW 24.2 mph 33.4 mph N/A   Scattered Clouds
2:54 PM 34.0 °F 21.8 °F 7.0 °F 32% 30.02 in 10.0 mi NNW 23.0 mph 34.5 mph N/A   Mostly Cloudy
3:54 PM 32.0 °F 19.2 °F 3.9 °F 31% 30.05 in 10.0 mi NNW 23.0 mph 34.5 mph N/A   Mostly Cloudy
4:54 PM 28.9 °F 15.8 °F 9.0 °F 43% 30.08 in 10.0 mi NW 20.7 mph 28.8 mph N/A   Clear
5:54 PM 26.1 °F 16.8 °F 10.9 °F 53% 30.11 in 10.0 mi NW 9.2 mph - N/A   Clear
6:54 PM 26.1 °F 14.5 °F 9.0 °F 49% 30.12 in 10.0 mi WNW 13.8 mph - N/A   Clear
7:54 PM 21.0 °F 11.4 °F 8.1 °F 57% 30.16 in 10.0 mi WNW 8.1 mph - N/A   Clear
8:54 PM 18.0 °F 7.7 °F 7.0 °F 62% 30.16 in 10.0 mi NW 8.1 mph - N/A   Clear
9:54 PM 16.0 °F 7.4 °F 6.1 °F 65% 30.16 in 10.0 mi WNW 5.8 mph - N/A   Clear
10:54 PM 15.1 °F 7.7 °F 6.1 °F 68% 30.14 in 10.0 mi NW 4.6 mph - N/A   Clear
11:54 PM 14.0 °F 5.1 °F 5.0 °F 67% 30.12 in 10.0 mi WNW 5.8 mph - N/A   Clear